{"data":{"norad_id":59714,"epoch":"2026-05-25T04:01:14.232576Z","epoch_age_seconds":60875,"freshness":"FRESH","line1":"1 59714U 24088G   26145.16752584  .00001680  00000+0  18721-4 0  9991","line2":"2 59714  53.1584 309.2885 0001123  79.1647 280.9497 15.69711335118280","mean_motion":15.69711335,"eccentricity":0.0001123,"inclination_deg":53.1584,"raan_deg":309.2885,"arg_perigee_deg":79.1647,"mean_anomaly_deg":280.9497,"bstar":1.8721e-5,"rev_number":11828,"period_min":91.736612196917,"perigee_km":358.96626849334,"apogee_km":360.47959183366,"semimajor_km":6737.8599301635,"source":"CELESTRAK","updated_at":"2026-05-25T13:38:19.046657Z"}}